Location: Pedimozza
(42.0500°N, 9.3500°E)
Time: 20:31:32
(UTC+00:00)

IGS 5A - Pass Details

Date: 19 August 2019
Orbit: 584 x 588 km, 97.6° (Epoch: 08 September)

Event Time Altitude Azimuth Distance (km) Brightness Sun altitude
Exits shadow 20:39:42 54° 49° (NE) 713 3.7 -23.3°
Drops below altitude 10° 20:43:23 10° 356° (N) 1,914 6.7 -23.7°
Sets 20:45:35 0° 352° (N) 2,819 7.8 -24.0°
